When you browse on this site, cookies collect data to enhance your experience and personalize the content and advertising you see.
Visit our Privacy Policy to learn more. By continuing to use the site, you agree to this use of cookies and data.
  • In Spain
  • List of Countries
  • For 7 days
  • Water Temperature
  • Satellite Maps
  • Weather Map
  • Weather Widgets
  • user-avatar
    Login

    Hourly Weather Nagpur

    Today, 17 February, Sunday

    Time Temperature Precipitation Wind Pressure Humidity
    00:00 +23°C° 0 mm 2 mps 734 mmHg 50%
    01:00 +23°C° 0 mm 2 mps 734 mmHg 50%
    02:00 +21°C° 0 mm 2 mps 734 mmHg 51%
    03:00 +21°C° 0 mm 2 mps 734 mmHg 50%
    04:00 +20°C° 0 mm 2 mps 734 mmHg 50%
    05:00 +19°C° 0 mm 2 mps 734 mmHg 51%
    06:00 +20°C° 0 mm 2 mps 734 mmHg 47%
    07:00 +21°C° 0 mm 3 mps 735 mmHg 43%
    08:00 +21°C° 0 mm 3 mps 735 mmHg 39%
    09:00 +24°C° 0 mm 2 mps 735 mmHg 35%
    10:00 +26°C° 0 mm 2 mps 735 mmHg 31%
    11:00 +28°C° 0 mm 2 mps 735 mmHg 29%
    12:00 +29°C° 0 mm 2 mps 734 mmHg 26%
    13:00 +30°C° 0 mm 2 mps 733 mmHg 23%
    14:00 +31°C° 0 mm 2 mps 733 mmHg 20%
    15:00 +31°C° 0 mm 1 mps 732 mmHg 20%
    16:00 +31°C° 0 mm 1 mps 732 mmHg 20%
    17:00 +31°C° 0 mm 1 mps 732 mmHg 19%
    18:00 +29°C° 0 mm 1 mps 732 mmHg 20%
    19:00 +28°C° 0 mm 1 mps 732 mmHg 21%
    20:00 +26°C° 0 mm 2 mps 733 mmHg 22%
    21:00 +25°C° 0 mm 2 mps 733 mmHg 22%
    22:00 +24°C° 0 mm 2 mps 733 mmHg 22%
    23:00 +23°C° 0 mm 2 mps 732 mmHg 21%

    Tomorrow, 18 February, Monday

    Time Temperature Precipitation Wind Pressure Humidity
    00:00 +21°C° 0 mm 2 mps 732 mmHg 22%
    01:00 +21°C° 0 mm 2 mps 732 mmHg 22%
    02:00 +21°C° 0 mm 1 mps 732 mmHg 23%
    03:00 +21°C° 0 mm 1 mps 732 mmHg 23%
    04:00 +21°C° 0 mm 1 mps 732 mmHg 23%
    05:00 +20°C° 0 mm 1 mps 732 mmHg 23%
    06:00 +21°C° 0 mm 1 mps 732 mmHg 23%
    07:00 +23°C° 0 mm 1 mps 733 mmHg 22%
    08:00 +24°C° 0 mm 1 mps 733 mmHg 21%
    09:00 +26°C° 0 mm 1 mps 733 mmHg 19%
    10:00 +28°C° 0 mm 1 mps 733 mmHg 17%
    11:00 +30°C° 0 mm 1 mps 733 mmHg 15%
    12:00 +31°C° 0 mm 1 mps 733 mmHg 14%
    13:00 +32°C° 0 mm 2 mps 732 mmHg 13%
    14:00 +34°C° 0 mm 2 mps 731 mmHg 12%
    15:00 +33°C° 0 mm 1 mps 731 mmHg 14%
    16:00 +33°C° 0 mm 1 mps 731 mmHg 15%
    17:00 +33°C° 0 mm 1 mps 730 mmHg 16%
    18:00 +31°C° 0 mm 1 mps 731 mmHg 17%
    19:00 +29°C° 0 mm 1 mps 731 mmHg 17%
    20:00 +28°C° 0 mm 2 mps 732 mmHg 18%
    21:00 +27°C° 0 mm 2 mps 732 mmHg 19%
    22:00 +26°C° 0 mm 1 mps 732 mmHg 20%
    23:00 +25°C° 0 mm 1 mps 731 mmHg 22%

    Day after tomorrow, 19 February, Tuesday

    Time Temperature Precipitation Wind Pressure Humidity
    00:00 +25°C° 0 mm 1 mps 731 mmHg 23%
    01:00 +24°C° 0 mm 1 mps 731 mmHg 25%
    02:00 +23°C° 0 mm 1 mps 730 mmHg 26%
    03:00 +23°C° 0 mm 1 mps 730 mmHg 27%
    04:00 +23°C° 0 mm 1 mps 731 mmHg 28%
    05:00 +22°C° 0 mm 1 mps 731 mmHg 29%
    06:00 +23°C° 0 mm 1 mps 732 mmHg 28%
    07:00 +24°C° 0 mm 1 mps 733 mmHg 27%
    08:00 +25°C° 0 mm 1 mps 733 mmHg 27%
    09:00 +28°C° 0 mm 2 mps 734 mmHg 23%
    10:00 +30°C° 0 mm 2 mps 734 mmHg 20%
    11:00 +32°C° 0 mm 2 mps 734 mmHg 17%
    12:00 +34°C° 0 mm 2 mps 733 mmHg 16%
    13:00 +35°C° 0 mm 2 mps 733 mmHg 15%
    14:00 +35°C° 0 mm 1 mps 732 mmHg 13%
    15:00 +35°C° 0 mm 1 mps 732 mmHg 15%
    16:00 +35°C° 0 mm 1 mps 732 mmHg 16%
    17:00 +32°C° 0 mm 0 mps 732 mmHg 17%
    18:00 +33°C° 0 mm 1 mps 732 mmHg 17%
    19:00 +31°C° 0 mm 1 mps 733 mmHg 18%
    20:00 +29°C° 0 mm 2 mps 734 mmHg 18%
    21:00 +29°C° 0 mm 2 mps 734 mmHg 19%
    22:00 +28°C° 0 mm 2 mps 734 mmHg 20%
    23:00 +27°C° 0 mm 2 mps 734 mmHg 21%

    20 February, Wednesday

    Time Temperature Precipitation Wind Pressure Humidity
    00:00 +27°C° 0 mm 2 mps 734 mmHg 22%
    01:00 +26°C° 0 mm 2 mps 733 mmHg 23%
    02:00 +25°C° 0 mm 1 mps 733 mmHg 24%
    03:00 +25°C° 0 mm 1 mps 733 mmHg 25%
    04:00 +24°C° 0 mm 1 mps 733 mmHg 26%
    05:00 +24°C° 0 mm 1 mps 733 mmHg 27%
    06:00 +25°C° 0 mm 2 mps 734 mmHg 26%
    07:00 +26°C° 0 mm 2 mps 735 mmHg 26%
    08:00 +27°C° 0 mm 2 mps 736 mmHg 25%
    09:00 +29°C° 0 mm 2 mps 736 mmHg 27%
    10:00 +31°C° 0 mm 3 mps 736 mmHg 28%
    11:00 +35°C° 0 mm 3 mps 736 mmHg 30%
    12:00 +36°C° 0 mm 3 mps 735 mmHg 29%
    13:00 +37°C° 0 mm 3 mps 734 mmHg 28%
    14:00 +37°C° 0 mm 3 mps 733 mmHg 28%
    15:00 +37°C° 0 mm 2 mps 733 mmHg 29%
    16:00 +37°C° 0 mm 2 mps 733 mmHg 29%
    17:00 +35°C° 0 mm 1 mps 733 mmHg 30%
    18:00 +34°C° 0 mm 1 mps 734 mmHg 32%
    19:00 +33°C° 0 mm 1 mps 734 mmHg 34%
    20:00 +32°C° 0 mm 1 mps 735 mmHg 36%
    21:00 +31°C° 0.1 mm 1 mps 735 mmHg 38%
    22:00 +30°C° 0.1 mm 1 mps 735 mmHg 40%
    23:00 +29°C° 0.1 mm 1 mps 735 mmHg 43%

    21 February, Thursday

    Time Temperature Precipitation Wind Pressure Humidity
    00:00 +29°C° 0.6 mm 1 mps 735 mmHg 48%
    01:00 +28°C° 0.6 mm 1 mps 735 mmHg 52%
    02:00 +28°C° 0.6 mm 2 mps 734 mmHg 57%
    03:00 +28°C° 0 mm 1 mps 734 mmHg 56%
    04:00 +29°C° 0 mm 1 mps 735 mmHg 54%
    05:00 +29°C° 0 mm 1 mps 735 mmHg 52%
    06:00 +29°C° 0.2 mm 1 mps 736 mmHg 51%
    07:00 +29°C° 0.2 mm 2 mps 736 mmHg 50%
    08:00 +29°C° 0.2 mm 2 mps 737 mmHg 48%
    09:00 +31°C° 0 mm 2 mps 737 mmHg 44%
    10:00 +34°C° 0 mm 3 mps 737 mmHg 40%
    11:00 +35°C° 0 mm 3 mps 737 mmHg 36%
    12:00 +36°C° 0 mm 3 mps 736 mmHg 34%
    13:00 +37°C° 0 mm 3 mps 735 mmHg 32%
    14:00 +38°C° 0 mm 3 mps 734 mmHg 29%
    15:00 +38°C° 0 mm 2 mps 734 mmHg 30%
    16:00 +37°C° 0 mm 2 mps 733 mmHg 30%
    17:00 +36°C° 0 mm 1 mps 733 mmHg 31%
    18:00 +35°C° 0 mm 1 mps 734 mmHg 32%
    19:00 +34°C° 0 mm 1 mps 734 mmHg 33%
    20:00 +34°C° 0 mm 2 mps 735 mmHg 34%
    21:00 +32°C° 0 mm 1 mps 735 mmHg 36%
    22:00 +32°C° 0 mm 1 mps 735 mmHg 38%
    23:00 +31°C° 0 mm 1 mps 734 mmHg 40%

    22 February, Friday

    Time Temperature Precipitation Wind Pressure Humidity
    00:00 +30°C° 0 mm 1 mps 734 mmHg 43%
    01:00 +29°C° 0 mm 2 mps 733 mmHg 46%
    02:00 +28°C° 0 mm 2 mps 733 mmHg 49%
    03:00 +28°C° 0 mm 2 mps 733 mmHg 51%
    04:00 +28°C° 0 mm 1 mps 733 mmHg 53%
    05:00 +27°C° 0 mm 1 mps 733 mmHg 54%
    06:00 +28°C° 0 mm 1 mps 734 mmHg 52%
    07:00 +29°C° 0 mm 1 mps 734 mmHg 49%
    08:00 +30°C° 0 mm 1 mps 735 mmHg 47%
    09:00 +32°C° 0 mm 2 mps 735 mmHg 41%
    10:00 +35°C° 0 mm 2 mps 735 mmHg 35%
    11:00 +37°C° 0 mm 3 mps 735 mmHg 30%
    12:00 +38°C° 0 mm 3 mps 734 mmHg 27%
    13:00 +39°C° 0 mm 3 mps 733 mmHg 25%
    14:00 +39°C° 0 mm 3 mps 732 mmHg 23%
    15:00 +39°C° 0 mm 2 mps 732 mmHg 24%
    16:00 +38°C° 0 mm 2 mps 732 mmHg 26%
    17:00 +36°C° 0 mm 1 mps 732 mmHg 27%
    18:00 +35°C° 0 mm 1 mps 732 mmHg 28%
    19:00 +34°C° 0 mm 1 mps 733 mmHg 29%
    20:00 +34°C° 0 mm 1 mps 733 mmHg 30%
    21:00 +33°C° 0 mm 1 mps 733 mmHg 31%
    22:00 +33°C° 0 mm 1 mps 733 mmHg 32%
    23:00 +32°C° 0 mm 1 mps 733 mmHg 33%
    Show more